Location: L�tisburg
(47.3947°N, 9.0820°E)
Time: 00:06:02
(UTC+00:00)

Cosmos 1707 Rocket - Pass Details

Date: 21 June 2021
Orbit: 604 x 632 km, 82.5° (Epoch: 02 August)

Event Time Altitude Azimuth Distance (km) Brightness Sun altitude
Rises 02:00:30 0° 9° (N) 2,907 8.2 -11.0°
Reaches altitude 10° 02:04:33 10° 46° (NE) 1,985 7.7 -10.6°
Maximum altitude 02:05:45 11° 62° (ENE) 1,917 7.2 -10.5°
Drops below altitude 10° 02:06:57 10° 78° (ENE) 1,976 6.9 -10.4°
Sets 02:10:57 0° 115° (ESE) 2,866 7.2 -10.0°
